Saint Bonnet de Bellac- Haute Vienne - France
Donnes mto: vendredi / samedi, 03/11/2012
Date Horaire Temp. E. Hum. E. P.atmo. Pluie Vent Direction Direction Ensoleilleme Solaire P. de rose Temp au vent Rafales
02/11/2012 16:00 11,6 C 90 % 1003,6 hPa 0,1 mm 17,6 km/h (3 Bft) O-SO 247 0 min 0 W/m 10,0 C 11,6 C 25,9 km/h (4 Bft)
02/11/2012 16:15 11,6 C 90 % 1003,8 hPa 0,0 mm 12,2 km/h (2 Bft) S-SO 202 0 min 0 W/m 10,0 C 11,6 C 19,4 km/h (3 Bft)
02/11/2012 16:30 11,6 C 91 % 1003,8 hPa 0,1 mm 12,6 km/h (3 Bft) S-SO 202 0 min 0 W/m 10,2 C 11,6 C 15,1 km/h (3 Bft)
02/11/2012 16:45 11,6 C 91 % 1003,7 hPa 0,1 mm 12,2 km/h (2 Bft) O 270 0 min 0 W/m 10,2 C 11,6 C 14,0 km/h (3 Bft)
02/11/2012 17:00 11,7 C 91 % 1003,8 hPa 0,0 mm 12,2 km/h (2 Bft) SO 225 0 min 0 W/m 10,3 C 11,7 C 22,0 km/h (4 Bft)
02/11/2012 17:15 11,7 C 90 % 1004,1 hPa 0,0 mm 6,8 km/h (2 Bft) SO 225 0 min 0 W/m 10,1 C 11,7 C 11,9 km/h (2 Bft)
02/11/2012 17:30 11,6 C 91 % 1004,2 hPa 0,0 mm 6,8 km/h (2 Bft) O-SO 247 0 min 0 W/m 10,2 C 11,6 C 7,9 km/h (2 Bft)
02/11/2012 17:45 11,5 C 91 % 1004,0 hPa 0,1 mm 6,5 km/h (2 Bft) S-SO 202 0 min 0 W/m 10,1 C 11,5 C 10,8 km/h (2 Bft)
02/11/2012 18:00 11,5 C 91 % 1004,4 hPa 0,0 mm 9,0 km/h (2 Bft) SO 225 0 min 0 W/m 10,1 C 11,5 C 10,4 km/h (2 Bft)
02/11/2012 18:15 11,4 C 91 % 1004,7 hPa 0,1 mm 7,6 km/h (2 Bft) SO 225 0 min 0 W/m 10,0 C 11,4 C 11,5 km/h (2 Bft)
02/11/2012 18:30 11,4 C 91 % 1004,5 hPa 0,1 mm 9,4 km/h (2 Bft) S-SO 202 0 min 0 W/m 10,0 C 11,4 C 16,9 km/h (3 Bft)
02/11/2012 18:45 11,3 C 90 % 1004,6 hPa 0,0 mm 8,3 km/h (2 Bft) S-SO 202 0 min 0 W/m 9,7 C 11,3 C 11,2 km/h (2 Bft)
02/11/2012 19:00 11,3 C 90 % 1004,8 hPa 0,0 mm 7,9 km/h (2 Bft) S-SO 202 0 min 0 W/m 9,7 C 11,3 C 9,7 km/h (2 Bft)
02/11/2012 19:15 11,2 C 90 % 1005,0 hPa 0,1 mm 11,2 km/h (2 Bft) S 180 0 min 0 W/m 9,6 C 11,2 C 14,8 km/h (3 Bft)
02/11/2012 19:30 10,9 C 90 % 1004,8 hPa 0,1 mm 9,4 km/h (2 Bft) SO 225 0 min 0 W/m 9,3 C 10,9 C 11,2 km/h (2 Bft)
02/11/2012 19:45 10,7 C 91 % 1005,0 hPa 0,0 mm 7,9 km/h (2 Bft) S-SE 157 0 min 0 W/m 9,3 C 10,7 C 11,2 km/h (2 Bft)
02/11/2012 20:00 10,6 C 92 % 1004,8 hPa 0,1 mm 0,0 km/h (0 Bft) S-SO 202 0 min 0 W/m 9,4 C 10,6 C 0,0 km/h (0 Bft)
02/11/2012 20:15 10,8 C 93 % 1004,7 hPa 0,0 mm 7,6 km/h (2 Bft) S-SO 202 0 min 0 W/m 9,7 C 10,8 C 10,4 km/h (2 Bft)
02/11/2012 20:30 11,1 C 93 % 1004,6 hPa 0,1 mm 8,6 km/h (2 Bft) SO 225 0 min 0 W/m 10,0 C 11,1 C 13,3 km/h (3 Bft)
02/11/2012 20:45 11,4 C 93 % 1004,6 hPa 0,0 mm 13,0 km/h (3 Bft) S-SO 202 0 min 0 W/m 10,3 C 11,4 C 14,8 km/h (3 Bft)
02/11/2012 21:00 11,6 C 93 % 1004,6 hPa 0,0 mm 11,9 km/h (2 Bft) S-SO 202 0 min 0 W/m 10,5 C 11,6 C 20,2 km/h (4 Bft)
02/11/2012 21:15 11,9 C 92 % 1004,9 hPa 0,1 mm 12,2 km/h (2 Bft) O-SO 247 0 min 0 W/m 10,6 C 11,9 C 25,9 km/h (4 Bft)
02/11/2012 21:30 12,2 C 92 % 1005,1 hPa 0,0 mm 13,7 km/h (3 Bft) SO 225 0 min 0 W/m 10,9 C 12,2 C 13,7 km/h (3 Bft)
02/11/2012 21:45 12,2 C 92 % 1005,3 hPa 0,2 mm 7,2 km/h (2 Bft) SO 225 0 min 0 W/m 10,9 C 12,2 C 8,3 km/h (2 Bft)
02/11/2012 22:00 12,2 C 92 % 1005,2 hPa 0,0 mm 8,3 km/h (2 Bft) SO 225 0 min 0 W/m 10,9 C 12,2 C 8,3 km/h (2 Bft)
02/11/2012 22:15 12,2 C 92 % 1005,3 hPa 0,0 mm 6,8 km/h (2 Bft) S 180 0 min 0 W/m 10,9 C 12,2 C 9,7 km/h (2 Bft)
02/11/2012 22:30 12,2 C 92 % 1005,3 hPa 0,0 mm 9,0 km/h (2 Bft) SO 225 0 min 0 W/m 10,9 C 12,2 C 13,0 km/h (3 Bft)
02/11/2012 22:45 12,1 C 91 % 1005,2 hPa 0,0 mm 7,6 km/h (2 Bft) SO 225 0 min 0 W/m 10,7 C 12,1 C 10,1 km/h (2 Bft)
02/11/2012 23:00 12,1 C 90 % 1005,2 hPa 0,0 mm 7,2 km/h (2 Bft) S-SO 202 0 min 0 W/m 10,5 C 12,1 C 7,2 km/h (2 Bft)
02/11/2012 23:15 12,2 C 90 % 1005,2 hPa 0,0 mm 9,0 km/h (2 Bft) S-SO 202 0 min 0 W/m 10,6 C 12,2 C 9,4 km/h (2 Bft)
02/11/2012 23:30 12,3 C 90 % 1005,2 hPa 0,1 mm 7,9 km/h (2 Bft) S 180 0 min 0 W/m 10,7 C 12,3 C 13,0 km/h (3 Bft)
02/11/2012 23:45 12,3 C 90 % 1005,2 hPa 0,1 mm 5,8 km/h (2 Bft) O-SO 247 0 min 0 W/m 10,7 C 12,3 C 7,6 km/h (2 Bft)
03/11/2012 00:00 12,2 C 90 % 1005,3 hPa 0,1 mm 10,1 km/h (2 Bft) SO 225 0 min 0 W/m 10,6 C 12,2 C 10,1 km/h (2 Bft)
03/11/2012 00:15 12,1 C 89 % 1005,3 hPa 0,0 mm 8,3 km/h (2 Bft) S-SO 202 0 min 0 W/m 10,3 C 12,1 C 8,6 km/h (2 Bft)
03/11/2012 00:30 12,1 C 89 % 1005,4 hPa 0,0 mm 8,6 km/h (2 Bft) S-SO 202 0 min 0 W/m 10,3 C 12,1 C 16,9 km/h (3 Bft)
03/11/2012 00:45 12,1 C 88 % 1005,2 hPa 0,1 mm 7,6 km/h (2 Bft) SO 225 0 min 0 W/m 10,2 C 12,1 C 9,7 km/h (2 Bft)
03/11/2012 01:00 12,1 C 88 % 1005,0 hPa 0,0 mm 5,0 km/h (1 Bft) S-SO 202 0 min 0 W/m 10,2 C 12,1 C 8,6 km/h (2 Bft)
03/11/2012 01:15 12,0 C 87 % 1004,9 hPa 0,0 mm 7,9 km/h (2 Bft) S 180 0 min 0 W/m 9,9 C 12,0 C 11,9 km/h (2 Bft)
03/11/2012 01:30 11,9 C 86 % 1004,9 hPa 0,0 mm 5,4 km/h (2 Bft) O-SO 247 0 min 0 W/m 9,6 C 11,9 C 11,2 km/h (2 Bft)
03/11/2012 01:45 11,8 C 86 % 1004,9 hPa 0,0 mm 10,1 km/h (2 Bft) O-SO 247 0 min 0 W/m 9,5 C 11,8 C 15,1 km/h (3 Bft)
03/11/2012 02:02 11,4 C 87 % 1004,9 hPa 0,1 mm 7,6 km/h (2 Bft) S-SO 202 0 min 0 W/m 9,3 C 11,4 C 9,7 km/h (2 Bft)
03/11/2012 02:15 11,2 C 87 % 1004,8 hPa 0,1 mm 7,9 km/h (2 Bft) S-SO 202 0 min 0 W/m 9,1 C 11,2 C 8,6 km/h (2 Bft)
03/11/2012 02:30 11,1 C 88 % 1005,0 hPa 0,0 mm 15,1 km/h (3 Bft) S-SO 202 0 min 0 W/m 9,2 C 11,1 C 18,4 km/h (3 Bft)
03/11/2012 02:45 11,1 C 88 % 1004,8 hPa 0,1 mm 7,9 km/h (2 Bft) S-SE 157 0 min 0 W/m 9,2 C 11,1 C 9,7 km/h (2 Bft)
03/11/2012 03:00 10,9 C 88 % 1004,8 hPa 0,0 mm 10,4 km/h (2 Bft) S-SO 202 0 min 0 W/m 9,0 C 10,9 C 15,1 km/h (3 Bft)
03/11/2012 03:15 10,9 C 88 % 1004,5 hPa 0,0 mm 15,1 km/h (3 Bft) S-SO 202 0 min 0 W/m 9,0 C 10,9 C 20,9 km/h (4 Bft)
03/11/2012 03:30 11,2 C 86 % 1004,4 hPa 0,0 mm 9,7 km/h (2 Bft) SO 225 0 min 0 W/m 8,9 C 11,2 C 15,5 km/h (3 Bft)
03/11/2012 03:45 11,3 C 86 % 1004,2 hPa 0,0 mm 10,1 km/h (2 Bft) S-SO 202 0 min 0 W/m 9,0 C 11,3 C 16,9 km/h (3 Bft)
03/11/2012 04:00 11,3 C 85 % 1004,3 hPa 0,0 mm 13,3 km/h (3 Bft) S-SE 157 0 min 0 W/m 8,9 C 11,3 C 24,1 km/h (4 Bft)
03/11/2012 04:15 11,2 C 85 % 1004,3 hPa 0,0 mm 9,7 km/h (2 Bft) S 180 0 min 0 W/m 8,8 C 11,2 C 14,0 km/h (3 Bft)
03/11/2012 04:30 11,0 C 85 % 1004,2 hPa 0,0 mm 7,6 km/h (2 Bft) SO 225 0 min 0 W/m 8,6 C 11,0 C 7,6 km/h (2 Bft)
03/11/2012 04:45 10,8 C 86 % 1004,2 hPa 0,0 mm 8,3 km/h (2 Bft) SO 225 0 min 0 W/m 8,6 C 10,8 C 12,2 km/h (2 Bft)
03/11/2012 05:00 10,8 C 86 % 1004,1 hPa 0,0 mm 6,1 km/h (2 Bft) S 180 0 min 0 W/m 8,6 C 10,8 C 9,7 km/h (2 Bft)
03/11/2012 05:15 10,8 C 86 % 1004,1 hPa 0,0 mm 10,1 km/h (2 Bft) S-SO 202 0 min 0 W/m 8,6 C 10,8 C 14,8 km/h (3 Bft)
03/11/2012 05:30 10,9 C 86 % 1004,0 hPa 0,0 mm 10,8 km/h (2 Bft) SO 225 0 min 0 W/m 8,7 C 10,9 C 16,6 km/h (3 Bft)
03/11/2012 05:45 10,9 C 85 % 1003,9 hPa 0,0 mm 7,6 km/h (2 Bft) SO 225 0 min 0 W/m 8,5 C 10,9 C 12,6 km/h (3 Bft)
03/11/2012 06:00 10,9 C 84 % 1003,7 hPa 0,0 mm 9,7 km/h (2 Bft) S-SO 202 0 min 0 W/m 8,3 C 10,9 C 12,2 km/h (2 Bft)
03/11/2012 06:15 10,8 C 84 % 1003,7 hPa 0,0 mm 9,0 km/h (2 Bft) S-SO 202 0 min 0 W/m 8,2 C 10,8 C 12,2 km/h (2 Bft)
03/11/2012 06:30 10,6 C 84 % 1003,5 hPa 0,0 mm 10,8 km/h (2 Bft) S-SO 202 0 min 0 W/m 8,0 C 10,6 C 24,5 km/h (4 Bft)
03/11/2012 06:45 10,5 C 84 % 1003,4 hPa 0,0 mm 8,6 km/h (2 Bft) SO 225 0 min 0 W/m 7,9 C 10,5 C 13,7 km/h (3 Bft)
03/11/2012 07:00 10,4 C 84 % 1003,5 hPa 0,0 mm 9,0 km/h (2 Bft) SO 225 0 min 0 W/m 7,8 C 10,4 C 15,5 km/h (3 Bft)
03/11/2012 07:15 10,6 C 84 % 1003,5 hPa 0,0 mm 8,3 km/h (2 Bft) S 180 0 min 0 W/m 8,0 C 10,6 C 11,9 km/h (2 Bft)
03/11/2012 07:30 10,7 C 83 % 1003,5 hPa 0,0 mm 6,5 km/h (2 Bft) S 180 0 min 0 W/m 7,9 C 10,7 C 8,6 km/h (2 Bft)
03/11/2012 07:45 10,7 C 83 % 1003,6 hPa 0,0 mm 9,7 km/h (2 Bft) S-SE 157 0 min 0 W/m 7,9 C 10,7 C 15,1 km/h (3 Bft)
03/11/2012 08:00 10,8 C 83 % 1003,6 hPa 0,0 mm 10,1 km/h (2 Bft) O-SO 247 0 min 0 W/m 8,0 C 10,8 C 13,7 km/h (3 Bft)
03/11/2012 08:15 10,8 C 83 % 1003,7 hPa 0,0 mm 9,4 km/h (2 Bft) O-SO 247 0 min 0 W/m 8,0 C 10,8 C 14,4 km/h (3 Bft)
03/11/2012 08:30 11,2 C 82 % 1003,9 hPa 0,0 mm 6,8 km/h (2 Bft) S-SO 202 0 min 0 W/m 8,2 C 11,2 C 6,8 km/h (2 Bft)
03/11/2012 08:45 11,7 C 81 % 1004,2 hPa 0,0 mm 10,1 km/h (2 Bft) SO 225 0 min 0 W/m 8,5 C 11,7 C 13,7 km/h (3 Bft)
03/11/2012 09:00 11,9 C 80 % 1004,4 hPa 0,0 mm 8,3 km/h (2 Bft) S 180 0 min 0 W/m 8,6 C 11,9 C 13,0 km/h (3 Bft)
03/11/2012 09:15 12,1 C 81 % 1004,5 hPa 0,0 mm 9,0 km/h (2 Bft) S-SO 202 0 min 0 W/m 8,9 C 12,1 C 12,2 km/h (2 Bft)
03/11/2012 09:30 12,8 C 78 % 1004,5 hPa 0,0 mm 6,5 km/h (2 Bft) S-SO 202 0 min 0 W/m 9,1 C 12,8 C 6,5 km/h (2 Bft)
03/11/2012 09:45 14,1 C 75 % 1004,4 hPa 0,0 mm 6,1 km/h (2 Bft) SO 225 0 min 0 W/m 9,7 C 14,1 C 11,2 km/h (2 Bft)
03/11/2012 10:00 14,2 C 74 % 1004,5 hPa 0,0 mm 7,9 km/h (2 Bft) S-SO 202 0 min 0 W/m 9,6 C 14,2 C 9,4 km/h (2 Bft)
03/11/2012 10:15 13,9 C 76 % 1004,6 hPa 0,0 mm 5,0 km/h (1 Bft) S-SO 202 0 min 0 W/m 9,7 C 13,9 C 8,3 km/h (2 Bft)
03/11/2012 10:30 13,9 C 76 % 1004,6 hPa 0,0 mm 10,1 km/h (2 Bft) SO 225 0 min 0 W/m 9,7 C 13,9 C 23,4 km/h (4 Bft)
03/11/2012 10:45 14,2 C 75 % 1004,7 hPa 0,0 mm 7,9 km/h (2 Bft) S-SO 202 0 min 0 W/m 9,8 C 14,2 C 11,9 km/h (2 Bft)
03/11/2012 11:00 14,3 C 74 % 1004,6 hPa 0,0 mm 5,8 km/h (2 Bft) S-SO 202 0 min 0 W/m 9,7 C 14,3 C 11,5 km/h (2 Bft)
03/11/2012 11:15 14,6 C 74 % 1004,5 hPa 0,0 mm 8,6 km/h (2 Bft) S-SO 202 0 min 0 W/m 10,0 C 14,6 C 10,8 km/h (2 Bft)
03/11/2012 11:30 14,5 C 74 % 1004,5 hPa 0,0 mm 5,4 km/h (2 Bft) S-SO 202 0 min 0 W/m 9,9 C 14,5 C 11,2 km/h (2 Bft)
03/11/2012 11:45 14,5 C 75 % 1004,6 hPa 0,0 mm 4,7 km/h (1 Bft) S-SO 202 0 min 0 W/m 10,1 C 14,5 C 10,4 km/h (2 Bft)
03/11/2012 12:00 14,3 C 75 % 1004,6 hPa 0,0 mm 9,0 km/h (2 Bft) SO 225 0 min 0 W/m 9,9 C 14,3 C 13,3 km/h (3 Bft)
03/11/2012 12:15 14,3 C 77 % 1004,4 hPa 0,0 mm 5,4 km/h (2 Bft) SO 225 0 min 0 W/m 10,3 C 14,3 C 9,4 km/h (2 Bft)
03/11/2012 12:30 14,3 C 77 % 1004,5 hPa 0,0 mm 7,2 km/h (2 Bft) SO 225 0 min 0 W/m 10,3 C 14,3 C 7,2 km/h (2 Bft)
03/11/2012 12:45 13,9 C 79 % 1004,7 hPa 0,0 mm 1,8 km/h (1 Bft) SO 225 0 min 0 W/m 10,3 C 13,9 C 5,8 km/h (2 Bft)
03/11/2012 13:00 13,4 C 83 % 1004,5 hPa 0,1 mm 2,5 km/h (1 Bft) SO 225 0 min 0 W/m 10,6 C 13,4 C 4,3 km/h (1 Bft)
03/11/2012 13:15 13,3 C 85 % 1004,3 hPa 0,0 mm 6,8 km/h (2 Bft) S-SO 202 0 min 0 W/m 10,8 C 13,3 C 9,0 km/h (2 Bft)
03/11/2012 13:30 13,3 C 85 % 1004,2 hPa 0,0 mm 5,4 km/h (2 Bft) S 180 0 min 0 W/m 10,8 C 13,3 C 10,4 km/h (2 Bft)
03/11/2012 13:45 13,2 C 85 % 1004,2 hPa 0,0 mm 5,0 km/h (1 Bft) S-SO 202 0 min 0 W/m 10,7 C 13,2 C 10,4 km/h (2 Bft)
03/11/2012 14:00 13,2 C 85 % 1004,1 hPa 0,0 mm 4,7 km/h (1 Bft) S-SO 202 0 min 0 W/m 10,7 C 13,2 C 4,7 km/h (1 Bft)
03/11/2012 14:15 13,2 C 85 % 1004,1 hPa 0,0 mm 7,2 km/h (2 Bft) S-SO 202 0 min 0 W/m 10,7 C 13,2 C 7,6 km/h (2 Bft)
03/11/2012 14:30 13,2 C 85 % 1004,1 hPa 0,0 mm 2,5 km/h (1 Bft) S-SO 202 0 min 0 W/m 10,7 C 13,2 C 4,0 km/h (1 Bft)
03/11/2012 14:45 13,1 C 86 % 1004,3 hPa 0,0 mm 4,0 km/h (1 Bft) SO 225 0 min 0 W/m 10,8 C 13,1 C 9,0 km/h (2 Bft)
03/11/2012 15:00 12,9 C 87 % 1004,2 hPa 0,0 mm 4,0 km/h (1 Bft) N 360 0 min 0 W/m 10,8 C 12,9 C 4,0 km/h (1 Bft)
03/11/2012 15:15 12,8 C 88 % 1004,3 hPa 0,0 mm 0,4 km/h (0 Bft) S-SO 202 0 min 0 W/m 10,9 C 12,8 C 3,6 km/h (1 Bft)
03/11/2012 15:30 12,6 C 90 % 1004,4 hPa 0,1 mm 2,2 km/h (1 Bft) S-SO 202 0 min 0 W/m 11,0 C 12,6 C 6,8 km/h (2 Bft)
03/11/2012 15:45 12,4 C 90 % 1004,4 hPa 0,0 mm 2,9 km/h (1 Bft) SO 225 0 min 0 W/m 10,8 C 12,4 C 4,3 km/h (1 Bft)
_ Min-Heure 07:00 11:30 06:45 - 20:00 - - - - 07:00 07:00 20:00
Minimum _ 10,4 C 74 % 1003,4 hPa - 0,0 km/h (0 Bft) - - - - 7,8 C 10,4 C 0,0 km/h (0 Bft)
_ Max-Heure 11:15 21:00 00:30 21:45 16:00 - - 15:45 15:45 15:30 11:15 21:15
Maximum _ 14,6 C 93 % 1005,4 hPa 0,2 mm 17,6 km/h
O-SO (3 Bft)
- - 0 min 0 W/m 11,0 C 14,6 C 25,9 km/h
O-SO (4 Bft)
Moyenne _ 12,0 C 86 % 1004,4 hPa #1,2 mm 8,7 km/h (2 Bft) S-SO - #0 min. 0 W/m 9,7 C 12,0 C 12,9 km/h (3 Bft)
Saint Bonnet de Bellac- Haute Vienne - France